Location: Lucerne Valley
(34.4439°N, 116.9669°E)
Time: 17:25:09
(UTC-07:00)

ISS - Pass Details

Date: 14 October 2017
Orbit: 401 x 408 km, 51.6° (Epoch: 18 October)

Event Time Altitude Azimuth Distance (km) Brightness Sun altitude
Rises 04:07:09 0° 315° (NW) 2,320 0.8 -18.9°
Reaches altitude 10° 04:09:15 10° 318° (NW) 1,459 -0.4 -19.3°
Enters shadow 04:12:09 60° 0° (N) 467 -3.6 -19.9°
